Lid_Strength_Index
1 1 1 0 1 -0 -0 -0 0 1 1 2 3 3 4 4 3 5 10 8 6 3 4 7 8 9 8 8 7 7 11 12 10 10 9 7 7 5 5 5 5 4 4 3 2
1 1 2 2 1 1 1 0 0 0 0 1 2 3 4 4 7 8 7 5 4 4 8 9 10 9 9 9 8 9 11 10 8 7 8 7 7 6 7 6 6 5 4 3 2
2 2 2 2 2 2 1 1 1 0 1 0 0 1 3 5 9 10 7 6 5 5 8 8 9 9 10 8 9 9 11 8 8 7 7 8 8 7 7 7 6 6 5 4 3
3 3 2 2 2 2 2 3 2 1 1 0 0 0 1 4 11 8 7 7 6 7 8 9 9 10 10 10 8 11 10 9 9 9 9 8 7 8 8 7 6 5 5 5 4
3 3 3 3 3 2 2 2 2 2 2 1 1 1 4 7 7 7 5 7 8 8 10 9 10 10 11 11 10 11 11 11 10 10 9 8 9 8 8 6 5 6 7 7 6
4 4 4 4 3 3 3 2 2 1 2 2 2 3 6 9 7 6 7 7 7 7 8 8 10 10 11 12 12 11 11 10 10 10 9 10 9 10 8 8 7 7 7 7 7
4 4 4 4 4 4 3 3 2 2 2 1 2 6 8 8 6 6 7 7 7 6 8 7 6 9 9 10 9 10 12 10 9 10 10 11 11 11 8 9 9 9 9 9 8
4 4 4 4 4 4 4 3 2 2 2 2 3 6 8 8 7 8 7 8 6 6 7 6 6 8 9 9 11 12 12 12 10 11 11 11 11 9 9 10 10 10 9 9 9
3 3 3 3 3 3 3 2 2 3 4 3 6 7 8 7 9 8 8 9 8 8 8 8 8 9 10 12 13 12 13 12 11 11 11 12 11 9 10 10 10 10 9 9 8
2 2 2 3 3 3 2 1 3 4 5 6 7 9 7 9 9 8 8 8 10 9 10 10 10 12 12 13 15 13 14 12 12 12 13 12 12 10 10 11 10 9 9 8 8
3 3 3 3 2 2 1 2 4 5 5 7 7 8 8 9 8 9 8 9 9 10 13 11 14 15 13 12 11 12 12 12 11 13 13 12 12 10 8 10 10 9 8 8 9
2 3 3 3 2 1 1 5 7 8 11 6 6 6 6 8 10 10 8 11 11 13 11 12 14 11 10 11 12 13 13 12 11 13 14 13 12 11 10 9 9 9 8 9 9
2 2 2 2 1 3 3 4 3 5 11 7 6 7 7 8 9 8 10 10 11 12 12 12 11 11 10 12 13 13 13 12 12 13 13 14 13 11 9 10 9 9 10 9 9
1 1 2 2 2 4 3 2 1 4 11 9 8 8 8 8 9 9 9 10 11 12 11 12 10 12 12 13 12 14 10 12 12 13 16 13 18 11 9 10 11 11 11 10 10
2 1 1 2 3 5 3 1 1 3 19 9 9 7 8 9 10 10 9 10 11 11 12 12 13 14 13 12 11 13 13 13 13 13 14 13 15 13 10 11 11 11 10 10 10
2 1 2 2 1 1 1 0 2 13 17 10 9 10 10 9 10 10 10 9 10 10 11 12 12 13 12 14 12 12 13 14 14 14 18 15 14 14 11 11 10 10 11 11 11
2 2 3 1 3 -0 -1 3 12 15 9 13 10 9 10 10 11 11 12 12 12 15 14 11 12 12 12 15 14 13 15 17 19 19 19 13 15 14 10 10 10 11 12 11 11
2 2 2 1 -0 -1 1 8 16 12 13 8 9 8 10 10 10 11 12 13 11 12 14 14 16 12 12 12 13 15 14 16 22 20 17 17 18 14 12 11 11 10 11 11 11
2 3 1 2 1 -1 5 13 11 10 8 10 9 10 10 9 10 10 11 12 11 11 15 14 14 12 13 12 12 14 16 12 16 20 18 15 14 11 12 13 12 11 11 11 11
4 4 3 2 1 2 8 11 10 7 7 8 12 10 12 11 11 12 12 10 12 10 10 13 16 13 13 12 12 14 12 17 16 21 22 16 15 13 13 13 13 12 12 11 10
5 7 3 2 1 5 11 10 9 6 6 9 10 11 11 11 10 12 11 9 10 11 10 12 14 15 14 15 15 15 16 15 14 15 19 19 15 11 12 11 12 12 11 11 11
7 10 4 2 8 8 10 9 7 9 7 8 8 9 10 10 11 11 12 9 7 10 13 11 13 16 15 12 13 12 14 14 17 18 16 16 15 11 11 10 11 11 11 10 10
9 9 3 4 12 11 9 10 9 10 10 10 10 9 9 10 13 11 10 7 7 8 12 11 14 17 16 14 13 15 13 13 13 14 17 18 15 11 12 11 11 11 10 10 10
9 12 8 6 8 11 13 13 12 9 10 10 11 10 10 12 9 11 11 9 8 9 8 8 12 14 17 15 14 16 14 13 14 17 16 15 13 11 12 13 12 11 10 10 10
8 11 10 14 12 12 11 12 14 13 10 9 10 10 10 12 11 11 10 10 9 9 8 10 14 12 13 13 13 14 14 14 15 14 16 14 13 11 9 11 11 10 10 10 11
10 11 10 11 11 12 12 13 13 12 12 13 11 10 9 11 11 13 10 11 11 10 11 10 13 13 14 12 14 15 13 13 13 13 13 13 13 9 11 11 10 10 10 11 11
6 6 9 11 12 12 12 12 12 11 10 9 10 10 10 9 8 8 8 8 9 11 12 12 12 14 16 13 14 16 16 14 13 12 13 15 12 10 11 11 11 10 10 10 9